Check out our new BloomSky Weather System.

Active alerts


No alerts


Thunder radar  blitzortung!


Rain radar more information rain snow radar


Visit our other weather sites:

Template documentation
and downloads

And another site



Weather Underground History page Text

Daily Summary for November 6, 2017 Units:  English    Metric   Both
« Previous Day
Next Day »
Daily Weekly Monthly Yearly Custom
  High: Low: Average:
Temperature: 88.3 °F 73.4 °F 79.1 °F
Dew Point: 74.7 °F 67.8 °F 72.2 °F
Humidity: 95 % 56 % 81 %
Wind Speed: 12.0 mph 0.0 mph 3.5 mph
Wind Gust: 16.0 mph - -
Wind:- - SSW
Pressure: 30.03 in 29.94 in -
Precipitation: 0.00 in    
Historical Graphs
 
 
Tabular Data for November 6, 2017
Time Temperature Dew Point Pressure Wind Wind Speed Wind Gust Humidity Rainfall Rate (Hourly)
00:01 76.3 °F 74.1 °F 29.96 in SSW 3.0 mph 13.0 mph 93 % 0.00 in
00:06 76.3 °F 74.1 °F 29.96 in SW 4.0 mph 13.0 mph 93 % 0.00 in
00:11 76.3 °F 74.1 °F 29.96 in SSW 5.0 mph 12.0 mph 93 % 0.00 in
00:16 76.3 °F 74.1 °F 29.96 in SW 9.0 mph 12.0 mph 93 % 0.00 in
00:21 76.3 °F 74.1 °F 29.96 in South 7.0 mph 13.0 mph 93 % 0.00 in
00:26 76.3 °F 73.8 °F 29.96 in SSW 4.0 mph 13.0 mph 92 % 0.00 in
00:31 76.3 °F 73.8 °F 29.96 in SE 7.0 mph 13.0 mph 92 % 0.00 in
00:36 76.3 °F 73.8 °F 29.96 in South 5.0 mph 12.0 mph 92 % 0.00 in
00:41 76.3 °F 73.8 °F 29.96 in SSW 3.0 mph 11.0 mph 92 % 0.00 in
00:46 76.1 °F 73.6 °F 29.96 in South 6.0 mph 11.0 mph 92 % 0.00 in
00:51 76.1 °F 73.9 °F 29.96 in SW 5.0 mph 11.0 mph 93 % 0.00 in
00:56 75.9 °F 73.8 °F 29.96 in South 5.0 mph 9.0 mph 93 % 0.00 in
01:01 75.9 °F 73.8 °F 29.96 in South 3.0 mph 8.0 mph 93 % 0.00 in
01:06 75.9 °F 73.8 °F 29.96 in SSE 5.0 mph 10.0 mph 93 % 0.00 in
01:11 75.9 °F 73.8 °F 29.96 in South 5.0 mph 10.0 mph 93 % 0.00 in
01:16 75.9 °F 73.8 °F 29.95 in SW 2.0 mph 12.0 mph 93 % 0.00 in
01:21 75.9 °F 73.8 °F 29.95 in South 2.0 mph 12.0 mph 93 % 0.00 in
01:26 75.9 °F 73.8 °F 29.95 in SW 6.0 mph 12.0 mph 93 % 0.00 in
01:31 75.9 °F 73.4 °F 29.95 in South 3.0 mph 8.0 mph 92 % 0.00 in
01:36 75.7 °F 73.2 °F 29.95 in SSE 4.0 mph 9.0 mph 92 % 0.00 in
01:41 75.7 °F 73.2 °F 29.95 in SW 2.0 mph 10.0 mph 92 % 0.00 in
01:46 75.9 °F 73.4 °F 29.95 in SW 3.0 mph 10.0 mph 92 % 0.00 in
01:52 75.7 °F 73.6 °F 29.96 in South 3.0 mph 10.0 mph 93 % 0.00 in
01:54 75.7 °F 73.6 °F 29.96 in South 5.0 mph 10.0 mph 93 % 0.00 in
01:59 75.9 °F 73.8 °F 29.96 in SSW 6.0 mph 8.0 mph 93 % 0.00 in
02:04 75.9 °F 73.8 °F 29.96 in SSW 2.0 mph 6.0 mph 93 % 0.00 in
02:09 75.9 °F 73.8 °F 29.96 in SSW 3.0 mph 6.0 mph 93 % 0.00 in
02:14 75.9 °F 73.4 °F 29.96 in SSW 3.0 mph 7.0 mph 92 % 0.00 in
02:19 75.9 °F 73.4 °F 29.96 in SW 2.0 mph 7.0 mph 92 % 0.00 in
02:24 75.9 °F 73.4 °F 29.96 in Calm   7.0 mph 92 % 0.00 in
02:29 75.9 °F 73.4 °F 29.96 in SW 6.0 mph 6.0 mph 92 % 0.00 in
02:34 76.1 °F 73.6 °F 29.96 in SW 2.0 mph 9.0 mph 92 % 0.00 in
02:39 76.1 °F 73.2 °F 29.96 in SW 6.0 mph 9.0 mph 91 % 0.00 in
02:44 76.3 °F 73.4 °F 29.96 in SSW 3.0 mph 11.0 mph 91 % 0.00 in
02:49 76.3 °F 73.4 °F 29.95 in SW 4.0 mph 11.0 mph 91 % 0.00 in
02:54 76.3 °F 73.4 °F 29.96 in SSE 4.0 mph 12.0 mph 91 % 0.00 in
02:59 76.3 °F 73.4 °F 29.96 in SW 10.0 mph 12.0 mph 91 % 0.00 in
03:04 76.3 °F 73.4 °F 29.96 in SW 5.0 mph 12.0 mph 91 % 0.00 in
03:09 76.3 °F 73.4 °F 29.96 in SSW 3.0 mph 11.0 mph 91 % 0.00 in
03:14 76.3 °F 73.4 °F 29.96 in SSE 3.0 mph 11.0 mph 91 % 0.00 in
03:19 76.3 °F 73.4 °F 29.96 in South 2.0 mph 11.0 mph 91 % 0.00 in
03:24 76.3 °F 73.4 °F 29.96 in WSW 2.0 mph 9.0 mph 91 % 0.00 in
03:29 76.1 °F 73.2 °F 29.96 in SW 3.0 mph 11.0 mph 91 % 0.00 in
03:34 75.9 °F 73.0 °F 29.96 in WSW 2.0 mph 11.0 mph 91 % 0.00 in
03:39 75.9 °F 73.0 °F 29.96 in SSE 4.0 mph 11.0 mph 91 % 0.00 in
03:44 75.9 °F 73.0 °F 29.96 in SW 7.0 mph 8.0 mph 91 % 0.00 in
03:49 75.9 °F 73.0 °F 29.96 in SSW 2.0 mph 9.0 mph 91 % 0.00 in
03:54 75.9 °F 73.0 °F 29.96 in SW 4.0 mph 9.0 mph 91 % 0.00 in
03:59 75.9 °F 73.0 °F 29.96 in SSW 5.0 mph 11.0 mph 91 % 0.00 in
04:04 75.9 °F 73.0 °F 29.95 in SSW 3.0 mph 11.0 mph 91 % 0.00 in
04:14 75.7 °F 73.2 °F 29.95 in South 4.0 mph 9.0 mph 92 % 0.00 in
04:19 75.7 °F 73.2 °F 29.95 in WSW 2.0 mph 9.0 mph 92 % 0.00 in
04:24 75.6 °F 73.0 °F 29.96 in SSW 2.0 mph 9.0 mph 92 % 0.00 in
04:29 75.6 °F 73.0 °F 29.96 in SW 4.0 mph 11.0 mph 92 % 0.00 in
04:34 75.6 °F 73.0 °F 29.96 in SW 3.0 mph 11.0 mph 92 % 0.00 in
04:39 75.4 °F 72.9 °F 29.96 in SW 5.0 mph 11.0 mph 92 % 0.00 in
04:44 75.4 °F 72.9 °F 29.96 in SSW 3.0 mph 9.0 mph 92 % 0.00 in
04:49 75.4 °F 72.9 °F 29.96 in SW 4.0 mph 8.0 mph 92 % 0.00 in
04:54 75.4 °F 72.9 °F 29.96 in South 2.0 mph 8.0 mph 92 % 0.00 in
04:55 75.2 °F 72.7 °F 29.96 in SW 3.0 mph 9.0 mph 92 % 0.00 in
05:00 75.2 °F 73.0 °F 29.96 in SW 6.0 mph 9.0 mph 93 % 0.00 in
05:05 75.0 °F 72.9 °F 29.96 in SW 3.0 mph 9.0 mph 93 % 0.00 in
05:10 75.0 °F 72.9 °F 29.96 in SE 4.0 mph 8.0 mph 93 % 0.00 in
05:15 75.0 °F 72.9 °F 29.96 in SW 3.0 mph 8.0 mph 93 % 0.00 in
05:20 75.0 °F 72.9 °F 29.96 in SSW 5.0 mph 9.0 mph 93 % 0.00 in
05:25 74.8 °F 73.0 °F 29.97 in SSW 3.0 mph 9.0 mph 94 % 0.00 in
05:30 74.7 °F 72.9 °F 29.97 in SSW 1.0 mph 9.0 mph 94 % 0.00 in
05:35 74.7 °F 72.9 °F 29.97 in SW 4.0 mph 7.0 mph 94 % 0.00 in
05:40 74.5 °F 72.7 °F 29.97 in SW 2.0 mph 6.0 mph 94 % 0.00 in
05:45 74.5 °F 72.7 °F 29.97 in SW 2.0 mph 6.0 mph 94 % 0.00 in
05:50 74.5 °F 72.7 °F 29.97 in SW 2.0 mph 6.0 mph 94 % 0.00 in
05:55 74.5 °F 73.0 °F 29.97 in SW 2.0 mph 5.0 mph 95 % 0.00 in
06:00 74.3 °F 72.9 °F 29.98 in SW 1.0 mph 5.0 mph 95 % 0.00 in
06:05 74.3 °F 72.9 °F 29.98 in SSW 5.0 mph 5.0 mph 95 % 0.00 in
06:10 74.3 °F 72.9 °F 29.98 in SW 3.0 mph 5.0 mph 95 % 0.00 in
06:15 74.3 °F 72.9 °F 29.97 in SW 3.0 mph 6.0 mph 95 % 0.00 in
06:21 74.1 °F 72.7 °F 29.98 in SSW 1.0 mph 6.0 mph 95 % 0.00 in
06:26 74.1 °F 72.7 °F 29.98 in Calm   6.0 mph 95 % 0.00 in
06:31 74.1 °F 72.7 °F 29.98 in SW 3.0 mph 5.0 mph 95 % 0.00 in
06:36 73.9 °F 72.5 °F 29.98 in South 1.0 mph 5.0 mph 95 % 0.00 in
06:41 73.9 °F 72.5 °F 29.98 in SW 4.0 mph 4.0 mph 95 % 0.00 in
06:43 73.9 °F 72.5 °F 29.99 in SW 2.0 mph 4.0 mph 95 % 0.00 in
06:48 73.9 °F 72.5 °F 29.99 in SW 4.0 mph 4.0 mph 95 % 0.00 in
06:53 73.9 °F 72.5 °F 29.98 in SW 2.0 mph 6.0 mph 95 % 0.00 in
06:58 73.9 °F 72.5 °F 29.98 in SSW 4.0 mph 6.0 mph 95 % 0.00 in
07:03 73.9 °F 72.5 °F 29.98 in SSE 2.0 mph 6.0 mph 95 % 0.00 in
07:08 73.9 °F 72.5 °F 29.99 in SSW 2.0 mph 5.0 mph 95 % 0.00 in
07:13 74.1 °F 72.7 °F 29.99 in SE 1.0 mph 5.0 mph 95 % 0.00 in
07:18 74.1 °F 72.7 °F 29.99 in WSW 4.0 mph 6.0 mph 95 % 0.00 in
07:23 74.3 °F 72.9 °F 29.99 in South 5.0 mph 7.0 mph 95 % 0.00 in
07:28 74.5 °F 73.0 °F 29.99 in SW 2.0 mph 7.0 mph 95 % 0.00 in
07:33 74.5 °F 73.0 °F 29.99 in SSE 2.0 mph 7.0 mph 95 % 0.00 in
07:38 74.7 °F 72.9 °F 29.99 in SSW 4.0 mph 6.0 mph 94 % 0.00 in
07:43 74.7 °F 72.9 °F 29.99 in SSW 3.0 mph 7.0 mph 94 % 0.00 in
07:48 74.8 °F 73.0 °F 30.00 in South 2.0 mph 7.0 mph 94 % 0.00 in
07:53 75.0 °F 73.2 °F 30.00 in SW 5.0 mph 10.0 mph 94 % 0.00 in
07:58 75.4 °F 73.6 °F 30.00 in SW 6.0 mph 10.0 mph 94 % 0.00 in
08:03 75.7 °F 73.6 °F 30.00 in SW 2.0 mph 10.0 mph 93 % 0.00 in
08:08 76.1 °F 73.9 °F 30.00 in SSW 3.0 mph 8.0 mph 93 % 0.00 in
08:13 76.5 °F 73.9 °F 30.00 in SE 2.0 mph 8.0 mph 92 % 0.00 in
08:18 76.6 °F 73.8 °F 30.01 in SW 2.0 mph 8.0 mph 91 % 0.00 in
08:23 77.2 °F 73.9 °F 30.01 in South 3.0 mph 8.0 mph 90 % 0.00 in
08:28 77.4 °F 73.9 °F 30.01 in SW 6.0 mph 8.0 mph 89 % 0.00 in
08:33 77.2 °F 73.9 °F 30.02 in SW 4.0 mph 9.0 mph 90 % 0.00 in
08:38 77.4 °F 74.1 °F 30.02 in South 5.0 mph 9.0 mph 90 % 0.00 in
08:43 77.5 °F 74.1 °F 30.02 in SW 4.0 mph 9.0 mph 89 % 0.00 in
08:48 77.5 °F 74.1 °F 30.02 in SSW 5.0 mph 12.0 mph 89 % 0.00 in
08:53 77.7 °F 74.3 °F 30.02 in South 1.0 mph 12.0 mph 89 % 0.00 in
08:58 78.1 °F 74.3 °F 30.02 in South 2.0 mph 12.0 mph 88 % 0.00 in
09:03 78.4 °F 74.3 °F 30.02 in SW 12.0 mph 12.0 mph 87 % 0.00 in
09:08 78.4 °F 73.9 °F 30.02 in South 6.0 mph 16.0 mph 86 % 0.00 in
09:09 78.4 °F 73.9 °F 30.02 in SSW 4.0 mph 16.0 mph 86 % 0.00 in
09:15 78.6 °F 74.1 °F 30.02 in WNW 2.0 mph 16.0 mph 86 % 0.00 in
09:20 78.6 °F 74.1 °F 30.02 in SW 6.0 mph 12.0 mph 86 % 0.00 in
09:25 79.0 °F 74.5 °F 30.02 in SSW 2.0 mph 12.0 mph 86 % 0.00 in
09:30 79.5 °F 74.7 °F 30.02 in South 3.0 mph 10.0 mph 85 % 0.00 in
09:35 79.7 °F 74.5 °F 30.02 in SW 3.0 mph 9.0 mph 84 % 0.00 in
09:40 79.9 °F 74.3 °F 30.02 in SW 6.0 mph 9.0 mph 83 % 0.00 in
09:45 79.9 °F 74.3 °F 30.03 in WSW 6.0 mph 12.0 mph 83 % 0.00 in
09:50 79.9 °F 74.3 °F 30.03 in WSW 10.0 mph 12.0 mph 83 % 0.00 in
09:51 80.1 °F 74.5 °F 30.02 in West 5.0 mph 12.0 mph 83 % 0.00 in
09:56 80.4 °F 74.1 °F 30.02 in SW 7.0 mph 12.0 mph 81 % 0.00 in
10:01 80.4 °F 74.1 °F 30.03 in West 2.0 mph 11.0 mph 81 % 0.00 in
10:06 80.4 °F 74.1 °F 30.03 in SW 3.0 mph 10.0 mph 81 % 0.00 in
10:11 80.2 °F 73.9 °F 30.03 in SSW 5.0 mph 10.0 mph 81 % 0.00 in
10:16 80.2 °F 73.9 °F 30.03 in SSE 3.0 mph 11.0 mph 81 % 0.00 in
10:21 80.8 °F 73.6 °F 30.03 in WSW 7.0 mph 15.0 mph 79 % 0.00 in
10:26 81.7 °F 73.8 °F 30.03 in SW 6.0 mph 15.0 mph 77 % 0.00 in
10:31 82.4 °F 74.1 °F 30.03 in SSW 11.0 mph 15.0 mph 76 % 0.00 in
10:36 82.6 °F 73.8 °F 30.03 in SSW 6.0 mph 13.0 mph 75 % 0.00 in
10:41 82.2 °F 72.7 °F 30.03 in WSW 6.0 mph 13.0 mph 73 % 0.00 in
10:46 81.9 °F 73.2 °F 30.03 in SW 8.0 mph 13.0 mph 75 % 0.00 in
10:51 81.9 °F 73.2 °F 30.03 in SSW 4.0 mph 13.0 mph 75 % 0.00 in
10:56 82.0 °F 72.9 °F 30.03 in West 2.0 mph 13.0 mph 74 % 0.00 in
11:01 82.2 °F 72.7 °F 30.03 in SW 7.0 mph 12.0 mph 73 % 0.00 in
11:06 82.0 °F 72.9 °F 30.02 in SW 4.0 mph 12.0 mph 74 % 0.00 in
11:11 81.7 °F 72.5 °F 30.02 in NW 4.0 mph 11.0 mph 74 % 0.00 in
11:16 81.5 °F 72.3 °F 30.02 in SSW 5.0 mph 11.0 mph 74 % 0.00 in
11:21 81.9 °F 73.2 °F 30.02 in SSW 3.0 mph 9.0 mph 75 % 0.00 in
11:26 82.0 °F 72.9 °F 30.02 in SSW 5.0 mph 9.0 mph 74 % 0.00 in
11:31 82.2 °F 73.6 °F 30.01 in SW 4.0 mph 9.0 mph 75 % 0.00 in
11:36 82.6 °F 72.7 °F 30.01 in SW 4.0 mph 9.0 mph 72 % 0.00 in
11:41 82.8 °F 73.2 °F 30.01 in SSW 4.0 mph 9.0 mph 73 % 0.00 in
11:46 83.1 °F 73.2 °F 30.01 in SW 6.0 mph 7.0 mph 72 % 0.00 in
11:51 83.1 °F 72.7 °F 30.01 in WSW 3.0 mph 9.0 mph 71 % 0.00 in
11:56 83.3 °F 73.8 °F 30.00 in SSW 2.0 mph 9.0 mph 73 % 0.00 in
12:01 83.8 °F 73.4 °F 30.00 in SW 3.0 mph 9.0 mph 71 % 0.00 in
12:06 84.0 °F 73.2 °F 30.00 in WNW 1.0 mph 7.0 mph 70 % 0.00 in
12:11 84.6 °F 73.2 °F 30.00 in West 2.0 mph 7.0 mph 69 % 0.00 in
12:16 85.3 °F 73.9 °F 29.99 in SSW 3.0 mph 11.0 mph 69 % 0.00 in
12:21 85.6 °F 73.4 °F 29.99 in WSW 5.0 mph 11.0 mph 67 % 0.00 in
12:26 85.8 °F 73.6 °F 29.99 in WSW 3.0 mph 11.0 mph 67 % 0.00 in
12:32 86.4 °F 72.7 °F 29.99 in West 2.0 mph 10.0 mph 64 % 0.00 in
12:37 86.7 °F 73.6 °F 29.99 in SSW 7.0 mph 10.0 mph 65 % 0.00 in
12:42 86.9 °F 72.9 °F 29.98 in SW 7.0 mph 12.0 mph 63 % 0.00 in
12:47 86.2 °F 72.5 °F 29.98 in SSW 5.0 mph 12.0 mph 64 % 0.00 in
12:52 86.5 °F 72.9 °F 29.98 in SSE 5.0 mph 12.0 mph 64 % 0.00 in
12:57 87.1 °F 73.4 °F 29.98 in South 4.0 mph 12.0 mph 64 % 0.00 in
13:02 87.4 °F 72.9 °F 29.97 in SSW 4.0 mph 12.0 mph 62 % 0.00 in
13:07 87.6 °F 72.5 °F 29.97 in South 6.0 mph 9.0 mph 61 % 0.00 in
13:12 87.3 °F 72.1 °F 29.97 in SW 3.0 mph 10.0 mph 61 % 0.00 in
13:17 87.3 °F 72.7 °F 29.97 in South 4.0 mph 10.0 mph 62 % 0.00 in
13:22 87.6 °F 72.0 °F 29.96 in SSW 4.0 mph 10.0 mph 60 % 0.00 in
13:27 87.4 °F 71.8 °F 29.96 in SW 3.0 mph 10.0 mph 60 % 0.00 in
13:31 87.4 °F 72.3 °F 29.96 in SSE 5.0 mph 10.0 mph 61 % 0.00 in
13:36 87.6 °F 72.5 °F 29.96 in SW 7.0 mph 10.0 mph 61 % 0.00 in
13:41 87.6 °F 72.0 °F 29.96 in SSW 5.0 mph 11.0 mph 60 % 0.00 in
13:46 87.6 °F 72.5 °F 29.95 in SE 4.0 mph 11.0 mph 61 % 0.00 in
13:51 87.8 °F 73.2 °F 29.95 in SSW 4.0 mph 11.0 mph 62 % 0.00 in
13:56 88.2 °F 72.5 °F 29.95 in SSW 6.0 mph 9.0 mph 60 % 0.00 in
14:01 87.8 °F 71.6 °F 29.95 in SW 4.0 mph 9.0 mph 59 % 0.00 in
14:06 88.0 °F 72.9 °F 29.95 in East 1.0 mph 11.0 mph 61 % 0.00 in
14:11 88.2 °F 72.0 °F 29.95 in SW 3.0 mph 11.0 mph 59 % 0.00 in
14:16 88.3 °F 72.1 °F 29.95 in South 4.0 mph 11.0 mph 59 % 0.00 in
14:21 88.3 °F 71.6 °F 29.95 in SW 7.0 mph 11.0 mph 58 % 0.00 in
14:26 88.2 °F 72.0 °F 29.94 in SSW 2.0 mph 11.0 mph 59 % 0.00 in
14:31 88.0 °F 71.4 °F 29.94 in SSW 3.0 mph 11.0 mph 58 % 0.00 in
14:36 87.8 °F 71.6 °F 29.94 in SW 5.0 mph 10.0 mph 59 % 0.00 in
14:41 87.6 °F 71.6 °F 29.94 in South 5.0 mph 10.0 mph 59 % 0.00 in
14:46 87.6 °F 71.6 °F 29.94 in SSW 3.0 mph 12.0 mph 59 % 0.00 in
14:51 88.0 °F 72.3 °F 29.94 in SW 3.0 mph 12.0 mph 60 % 0.00 in
14:56 88.3 °F 71.6 °F 29.94 in SSW 5.0 mph 12.0 mph 58 % 0.00 in
15:01 88.0 °F 71.8 °F 29.94 in WSW 4.0 mph 12.0 mph 59 % 0.00 in
15:06 87.8 °F 71.2 °F 29.94 in SW 6.0 mph 12.0 mph 58 % 0.00 in
15:11 87.6 °F 70.5 °F 29.94 in SSW 4.0 mph 12.0 mph 57 % 0.00 in
15:17 87.6 °F 71.1 °F 29.94 in SW 7.0 mph 11.0 mph 58 % 0.00 in
15:21 87.6 °F 71.1 °F 29.94 in South 6.0 mph 12.0 mph 58 % 0.00 in
15:26 87.6 °F 71.6 °F 29.94 in South 4.0 mph 13.0 mph 59 % 0.00 in
15:32 87.6 °F 70.0 °F 29.94 in South 4.0 mph 13.0 mph 56 % 0.00 in
15:37 87.4 °F 69.8 °F 29.94 in West 7.0 mph 13.0 mph 56 % 0.00 in
15:42 87.4 °F 70.3 °F 29.94 in SSW 5.0 mph 12.0 mph 57 % 0.00 in
15:47 87.3 °F 70.2 °F 29.94 in SSW 7.0 mph 12.0 mph 57 % 0.00 in
15:52 87.3 °F 70.2 °F 29.94 in SSW 6.0 mph 14.0 mph 57 % 0.00 in
15:57 87.1 °F 70.0 °F 29.94 in SW 4.0 mph 14.0 mph 57 % 0.00 in
16:02 86.7 °F 69.6 °F 29.94 in SSW 4.0 mph 14.0 mph 57 % 0.00 in
16:07 86.4 °F 69.3 °F 29.94 in West 1.0 mph 13.0 mph 57 % 0.00 in
16:12 86.0 °F 69.4 °F 29.94 in SW 3.0 mph 13.0 mph 58 % 0.00 in
16:17 85.6 °F 69.1 °F 29.94 in SW 3.0 mph 13.0 mph 58 % 0.00 in
16:22 85.5 °F 69.1 °F 29.94 in SSW 5.0 mph 10.0 mph 58 % 0.00 in
16:27 85.5 °F 69.1 °F 29.94 in SSW 6.0 mph 11.0 mph 58 % 0.00 in
16:32 85.3 °F 69.3 °F 29.94 in SSW 3.0 mph 11.0 mph 59 % 0.00 in
16:37 85.1 °F 68.7 °F 29.94 in SSW 4.0 mph 11.0 mph 58 % 0.00 in
16:42 84.9 °F 68.5 °F 29.94 in SW 4.0 mph 10.0 mph 58 % 0.00 in
16:47 84.6 °F 68.7 °F 29.94 in SSW 1.0 mph 10.0 mph 59 % 0.00 in
16:52 84.4 °F 68.5 °F 29.94 in SW 7.0 mph 10.0 mph 59 % 0.00 in
16:57 84.2 °F 67.8 °F 29.94 in SSW 2.0 mph 11.0 mph 58 % 0.00 in
17:02 84.0 °F 68.2 °F 29.94 in SW 4.0 mph 11.0 mph 59 % 0.00 in
17:07 83.8 °F 68.5 °F 29.94 in SW 2.0 mph 11.0 mph 60 % 0.00 in
17:12 83.5 °F 68.5 °F 29.94 in WSW 4.0 mph 9.0 mph 61 % 0.00 in
17:17 83.1 °F 68.4 °F 29.95 in SSW 1.0 mph 9.0 mph 61 % 0.00 in
17:22 82.9 °F 68.5 °F 29.95 in SSW 1.0 mph 7.0 mph 62 % 0.00 in
17:27 82.6 °F 68.7 °F 29.95 in SSW 2.0 mph 5.0 mph 63 % 0.00 in
17:32 82.2 °F 68.9 °F 29.95 in SSW 1.0 mph 4.0 mph 64 % 0.00 in
17:37 81.9 °F 68.9 °F 29.95 in SW 1.0 mph 4.0 mph 65 % 0.00 in
17:42 81.7 °F 69.3 °F 29.95 in SSW 2.0 mph 3.0 mph 66 % 0.00 in
17:47 81.3 °F 69.3 °F 29.95 in SW 2.0 mph 3.0 mph 67 % 0.00 in
17:52 81.1 °F 69.6 °F 29.95 in SW 1.0 mph 4.0 mph 68 % 0.00 in
17:57 80.8 °F 69.6 °F 29.95 in SW 2.0 mph 4.0 mph 69 % 0.00 in
18:02 80.6 °F 69.4 °F 29.95 in SW 1.0 mph 4.0 mph 69 % 0.00 in
18:07 80.4 °F 69.8 °F 29.96 in SSW 2.0 mph 4.0 mph 70 % 0.00 in
18:12 80.4 °F 69.8 °F 29.96 in SSE 4.0 mph 4.0 mph 70 % 0.00 in
18:17 80.2 °F 69.6 °F 29.96 in SSW 1.0 mph 5.0 mph 70 % 0.00 in
18:22 80.1 °F 69.8 °F 29.96 in SSW 1.0 mph 5.0 mph 71 % 0.00 in
18:27 80.1 °F 69.8 °F 29.96 in SSW 1.0 mph 5.0 mph 71 % 0.00 in
18:32 79.9 °F 70.0 °F 29.96 in SSW 1.0 mph 3.0 mph 72 % 0.00 in
18:37 79.5 °F 69.6 °F 29.96 in South 2.0 mph 3.0 mph 72 % 0.00 in
18:42 79.3 °F 70.0 °F 29.96 in SW 2.0 mph 3.0 mph 73 % 0.00 in
18:47 79.2 °F 69.8 °F 29.97 in SSW 1.0 mph 3.0 mph 73 % 0.00 in
18:53 79.0 °F 70.0 °F 29.97 in SW 2.0 mph 3.0 mph 74 % 0.00 in
18:58 78.6 °F 69.6 °F 29.97 in South 3.0 mph 3.0 mph 74 % 0.00 in
19:03 78.4 °F 69.4 °F 29.97 in SW 3.0 mph 4.0 mph 74 % 0.00 in
19:08 78.4 °F 69.4 °F 29.97 in SSW 1.0 mph 4.0 mph 74 % 0.00 in
19:13 78.4 °F 69.4 °F 29.97 in South 1.0 mph 4.0 mph 74 % 0.00 in
19:18 78.3 °F 69.6 °F 29.97 in SW 3.0 mph 4.0 mph 75 % 0.00 in
19:23 78.1 °F 69.4 °F 29.97 in SW 2.0 mph 4.0 mph 75 % 0.00 in
19:28 77.9 °F 69.8 °F 29.97 in SSW 2.0 mph 4.0 mph 76 % 0.00 in
19:33 77.9 °F 69.8 °F 29.98 in SSW 3.0 mph 4.0 mph 76 % 0.00 in
19:38 77.7 °F 70.0 °F 29.98 in SSW 2.0 mph 4.0 mph 77 % 0.00 in
19:43 77.7 °F 70.0 °F 29.98 in SE 2.0 mph 4.0 mph 77 % 0.00 in
19:48 77.5 °F 70.2 °F 29.98 in SW 2.0 mph 4.0 mph 78 % 0.00 in
19:53 77.5 °F 70.5 °F 29.98 in SW 3.0 mph 5.0 mph 79 % 0.00 in
19:58 77.5 °F 70.9 °F 29.98 in SW 2.0 mph 6.0 mph 80 % 0.00 in
20:03 77.7 °F 71.1 °F 29.98 in SSW 3.0 mph 7.0 mph 80 % 0.00 in
20:08 77.5 °F 70.9 °F 29.98 in South 2.0 mph 7.0 mph 80 % 0.00 in
20:13 77.4 °F 70.7 °F 29.99 in SSW 3.0 mph 7.0 mph 80 % 0.00 in
20:18 77.4 °F 71.1 °F 29.99 in SSW 4.0 mph 6.0 mph 81 % 0.00 in
20:23 77.2 °F 70.9 °F 29.99 in SSW 3.0 mph 12.0 mph 81 % 0.00 in
20:28 77.2 °F 70.9 °F 29.99 in SW 2.0 mph 12.0 mph 81 % 0.00 in
20:33 77.0 °F 71.1 °F 29.99 in SW 6.0 mph 12.0 mph 82 % 0.00 in
20:38 76.8 °F 71.2 °F 29.99 in SSW 4.0 mph 10.0 mph 83 % 0.00 in
20:43 76.8 °F 71.2 °F 29.99 in SE 6.0 mph 10.0 mph 83 % 0.00 in
20:49 76.6 °F 71.4 °F 29.99 in SSW 4.0 mph 10.0 mph 84 % 0.00 in
20:54 76.5 °F 71.6 °F 29.99 in South 2.0 mph 8.0 mph 85 % 0.00 in
20:59 76.3 °F 71.4 °F 29.99 in South 3.0 mph 8.0 mph 85 % 0.00 in
21:04 76.1 °F 71.6 °F 30.00 in South 3.0 mph 8.0 mph 86 % 0.00 in
21:09 75.9 °F 71.8 °F 30.00 in South 9.0 mph 9.0 mph 87 % 0.00 in
21:14 75.9 °F 72.1 °F 30.00 in SSW 4.0 mph 9.0 mph 88 % 0.00 in
21:19 75.7 °F 72.0 °F 30.00 in SSE 2.0 mph 10.0 mph 88 % 0.00 in
21:22 75.7 °F 72.0 °F 30.00 in South 4.0 mph 10.0 mph 88 % 0.00 in
21:27 75.6 °F 71.8 °F 30.00 in South 1.0 mph 10.0 mph 88 % 0.00 in
21:32 75.6 °F 72.1 °F 30.00 in South 3.0 mph 8.0 mph 89 % 0.00 in
21:37 75.4 °F 72.0 °F 30.00 in Calm   6.0 mph 89 % 0.00 in
21:42 75.2 °F 71.8 °F 30.00 in SSW 2.0 mph 6.0 mph 89 % 0.00 in
21:47 75.0 °F 72.0 °F 30.00 in SSW 1.0 mph 5.0 mph 90 % 0.00 in
21:52 74.8 °F 71.8 °F 30.00 in South 1.0 mph 4.0 mph 90 % 0.00 in
21:57 74.7 °F 71.6 °F 30.00 in SSW 2.0 mph 4.0 mph 90 % 0.00 in
22:02 74.5 °F 71.6 °F 30.00 in SW 3.0 mph 4.0 mph 91 % 0.00 in
22:07 74.5 °F 71.6 °F 30.00 in SSW 2.0 mph 5.0 mph 91 % 0.00 in
22:12 74.3 °F 71.8 °F 30.00 in South 1.0 mph 5.0 mph 92 % 0.00 in
22:17 74.3 °F 71.8 °F 30.01 in South 2.0 mph 5.0 mph 92 % 0.00 in
22:23 74.1 °F 71.6 °F 30.01 in SSE 2.0 mph 5.0 mph 92 % 0.00 in
22:28 74.1 °F 71.6 °F 30.00 in SW 3.0 mph 5.0 mph 92 % 0.00 in
22:33 74.1 °F 72.0 °F 30.00 in SE 4.0 mph 5.0 mph 93 % 0.00 in
22:38 73.9 °F 71.8 °F 30.00 in South 1.0 mph 5.0 mph 93 % 0.00 in
22:43 73.9 °F 71.8 °F 30.00 in SE 4.0 mph 6.0 mph 93 % 0.00 in
22:48 73.9 °F 71.8 °F 30.00 in SSE 1.0 mph 6.0 mph 93 % 0.00 in
22:53 73.9 °F 71.8 °F 30.00 in SW 2.0 mph 6.0 mph 93 % 0.00 in
22:58 73.9 °F 72.1 °F 30.01 in SSE 2.0 mph 5.0 mph 94 % 0.00 in
23:03 73.9 °F 72.1 °F 30.01 in SSW 1.0 mph 4.0 mph 94 % 0.00 in
23:08 73.8 °F 72.0 °F 30.01 in South 1.0 mph 4.0 mph 94 % 0.00 in
23:13 73.8 °F 72.0 °F 30.01 in SSW 2.0 mph 3.0 mph 94 % 0.00 in
23:18 73.8 °F 72.0 °F 30.01 in SW 3.0 mph 4.0 mph 94 % 0.00 in
23:23 73.8 °F 72.0 °F 30.01 in South 2.0 mph 4.0 mph 94 % 0.00 in
23:28 73.6 °F 71.8 °F 30.00 in South 2.0 mph 4.0 mph 94 % 0.00 in
23:33 73.6 °F 71.8 °F 30.00 in SSW 2.0 mph 4.0 mph 94 % 0.00 in
23:38 73.6 °F 72.1 °F 30.00 in South 1.0 mph 3.0 mph 95 % 0.00 in
23:43 73.6 °F 72.1 °F 30.00 in SE 4.0 mph 4.0 mph 95 % 0.00 in
23:48 73.6 °F 72.1 °F 30.00 in SSW 2.0 mph 4.0 mph 95 % 0.00 in
23:53 73.4 °F 72.0 °F 29.99 in SW 2.0 mph 4.0 mph 95 % 0.00 in
23:58 73.4 °F 72.0 °F 30.00 in SSE 2.0 mph 5.0 mph 95 % 0.00 in
Spring, Texas: Villages of Bridgestone
Compliments of Weather Underground - 2.75 mb

Script developed by  Jim McMurry - jmcmurry@mwt.net Adapted for the template by  Wim van der Kuil - Leuven-Template.eu

You find our weather info also at:

UK Metoffice

WeatherCloud

Weather Underground

Mid-South Weather Network

AWEKAS

Citizen Weather Observer Program (CWOP)

HAMweather, WeatherForYou, PWS Weather

Equipment we use:

Weather-station
Davis Vantage Vue

Weather-program
Meteohub

Weather-server
Debian 7.9 x86 (Guest)

Provider
DreamHost

Davis Vantage Vue

Meteohub

Debian 7.9 x86 (Guest)

DreamHost